Location: ????????
(55.3155°N, 39.2900°E)
Time: 13:16:57
(UTC+00:00)

Lacrosse 5 - Pass Details

Date: 14 April 2024
Orbit: 714 x 724 km, 57.0° (Epoch: 09 March)

Event Time Altitude Azimuth Distance (km) Brightness Sun altitude
Exits shadow 00:05:37 30° 230° (SW) 1,293 2.6 -16.9°
Maximum altitude 00:08:08 70° 154° (SSE) 772 1.9 -16.6°
Drops below altitude 10° 00:13:14 10° 71° (ENE) 2,222 5.4 -16.1°
Sets 00:15:38 0° 69° (ENE) 3,145 6.4 -15.9°
